QPF
0.01 0.02 0.01 0.02 0.03 0.03 0.03 0.02 0.04 0.04 0.02 0.01 0.01 0.01 0.05 0.11 0.09 0.08 0.05 0.03 0.03 0.03 0.03 0.03 0.02 0.02 0.02 0.01 0.01 0.01 0.02 0.03 0.03 0.04 0.06 0.12 0.11 0.08 0.05 0.05 0.05 0.04 0.03 0.04
0.03 0.02 0.02 0.02 0.04 0.04 0.05 0.02 0.02 0.04 0.03 0.02 0.02 0.01 0.02 0.05 0.05 0.06 0.04 0.03 0.04 0.03 0.03 0.05 0.05 0.02 0.02 0.01 0.01 0.01 0.02 0.02 0.04 0.05 0.05 0.05 0.10 0.14 0.09 0.06 0.05 0.03 0.03 0.04
0.04 0.02 0.01 0.01 0.03 0.03 0.04 0.02 0.02 0.03 0.04 0.02 0.03 0.04 0.03 0.03 0.06 0.07 0.06 0.05 0.06 0.03 0.02 0.04 0.03 0.02 0.01 0.02 0.02 0.02 0.02 0.02 0.03 0.04 0.04 0.04 0.05 0.07 0.08 0.08 0.06 0.04 0.04 0.04
0.01 0.01 0.00 0.00 0.01 0.01 0.02 0.01 0.01 0.03 0.03 0.02 0.02 0.05 0.06 0.04 0.05 0.09 0.09 0.06 0.04 0.02 0.02 0.02 0.02 0.02 0.02 0.03 0.03 0.03 0.03 0.03 0.04 0.05 0.06 0.05 0.05 0.05 0.06 0.06 0.05 0.05 0.03 0.03
0.00 0.00 0.01 0.02 0.02 0.03 0.01 0.01 0.03 0.02 0.03 0.02 0.02 0.04 0.05 0.05 0.06 0.08 0.09 0.08 0.04 0.03 0.02 0.03 0.04 0.02 0.02 0.02 0.02 0.04 0.04 0.05 0.06 0.07 0.05 0.06 0.07 0.06 0.05 0.04 0.04 0.03 0.02 0.02
0.00 0.00 0.02 0.02 0.01 0.01 0.00 0.00 0.01 0.04 0.05 0.05 0.03 0.03 0.06 0.07 0.10 0.13 0.16 0.10 0.05 0.03 0.03 0.03 0.02 0.01 0.01 0.01 0.02 0.02 0.04 0.06 0.05 0.05 0.05 0.05 0.05 0.04 0.04 0.04 0.04 0.03 0.02 0.02
0.00 0.00 0.01 0.01 0.01 0.00 0.01 0.01 0.02 0.05 0.07 0.06 0.02 0.02 0.05 0.04 0.05 0.10 0.13 0.08 0.05 0.04 0.03 0.03 0.02 0.01 0.01 0.02 0.01 0.01 0.03 0.04 0.04 0.04 0.03 0.03 0.03 0.03 0.03 0.04 0.04 0.03 0.02 0.02
0.01 0.01 0.01 0.00 0.00 0.00 0.01 0.03 0.07 0.07 0.06 0.05 0.04 0.04 0.06 0.05 0.05 0.10 0.12 0.07 0.05 0.04 0.03 0.03 0.02 0.02 0.02 0.01 0.01 0.01 0.02 0.03 0.03 0.04 0.03 0.03 0.03 0.03 0.03 0.04 0.04 0.04 0.03 0.03
0.02 0.02 0.00 0.00 0.00 0.00 0.00 0.02 0.03 0.02 0.01 0.03 0.05 0.06 0.08 0.06 0.04 0.06 0.07 0.05 0.04 0.03 0.03 0.02 0.02 0.02 0.02 0.01 0.01 0.01 0.02 0.03 0.02 0.02 0.02 0.03 0.03 0.03 0.04 0.05 0.05 0.05 0.03 0.03
0.01 0.01 0.01 0.00 0.00 0.00 0.00 0.00 0.01 0.02 0.03 0.03 0.04 0.07 0.13 0.11 0.09 0.07 0.04 0.03 0.02 0.02 0.02 0.02 0.02 0.02 0.03 0.02 0.02 0.02 0.02 0.02 0.02 0.02 0.02 0.02 0.03 0.03 0.04 0.04 0.04 0.03 0.03 0.02
0.01 0.01 0.01 0.00 0.00 0.00 0.00 0.00 0.01 0.02 0.02 0.04 0.06 0.12 0.13 0.10 0.08 0.07 0.04 0.02 0.01 0.01 0.01 0.02 0.02 0.03 0.03 0.03 0.03 0.03 0.02 0.02 0.02 0.02 0.02 0.03 0.03 0.03 0.03 0.04 0.03 0.03 0.03 0.03
0.02 0.01 0.02 0.01 0.01 0.00 0.00 0.00 0.00 0.01 0.02 0.02 0.05 0.10 0.07 0.09 0.07 0.07 0.05 0.03 0.02 0.01 0.01 0.01 0.02 0.02 0.03 0.03 0.02 0.02 0.02 0.02 0.02 0.02 0.03 0.04 0.05 0.05 0.04 0.03 0.03 0.03 0.04 0.04
0.01 0.01 0.03 0.05 0.04 0.01 0.00 0.00 0.00 0.00 0.01 0.02 0.05 0.10 0.06 0.07 0.08 0.05 0.03 0.02 0.02 0.02 0.01 0.01 0.01 0.01 0.02 0.02 0.01 0.02 0.02 0.03 0.03 0.04 0.05 0.06 0.06 0.05 0.05 0.04 0.04 0.04 0.04 0.04
0.00 0.01 0.04 0.08 0.07 0.03 0.01 0.01 0.01 0.01 0.03 0.04 0.06 0.10 0.08 0.06 0.06 0.05 0.04 0.02 0.01 0.01 0.01 0.01 0.01 0.02 0.02 0.01 0.01 0.02 0.02 0.02 0.02 0.02 0.02 0.04 0.05 0.05 0.05 0.05 0.04 0.04 0.04 0.04
0.01 0.02 0.00 0.01 0.01 0.01 0.01 0.01 0.01 0.01 0.02 0.06 0.10 0.10 0.08 0.07 0.04 0.03 0.02 0.02 0.01 0.01 0.01 0.01 0.02 0.02 0.01 0.01 0.01 0.01 0.01 0.01 0.02 0.02 0.03 0.04 0.04 0.05 0.05 0.05 0.05 0.03 0.02 0.02
0.00 0.00 0.00 0.00 0.01 0.01 0.01 0.01 0.01 0.01 0.01 0.03 0.06 0.06 0.05 0.04 0.02 0.02 0.02 0.02 0.01 0.01 0.01 0.00 0.01 0.01 0.01 0.01 0.01 0.01 0.02 0.02 0.02 0.03 0.03 0.04 0.04 0.04 0.03 0.04 0.05 0.04 0.03 0.02
0.01 0.01 0.02 0.02 0.01 0.02 0.03 0.02 0.01 0.02 0.02 0.03 0.04 0.04 0.04 0.03 0.02 0.03 0.02 0.02 0.02 0.01 0.01 0.01 0.01 0.01 0.01 0.01 0.01 0.02 0.02 0.02 0.02 0.02 0.01 0.02 0.03 0.02 0.02 0.03 0.04 0.04 0.05 0.04
0.01 0.02 0.04 0.04 0.04 0.06 0.04 0.02 0.02 0.03 0.04 0.03 0.03 0.03 0.06 0.04 0.03 0.03 0.03 0.02 0.02 0.02 0.01 0.01 0.01 0.01 0.01 0.01 0.02 0.02 0.02 0.02 0.02 0.02 0.01 0.01 0.01 0.01 0.02 0.04 0.04 0.04 0.04 0.04
0.01 0.03 0.04 0.05 0.05 0.06 0.05 0.03 0.03 0.05 0.06 0.03 0.02 0.02 0.03 0.03 0.02 0.05 0.04 0.04 0.04 0.03 0.03 0.03 0.02 0.01 0.01 0.01 0.02 0.02 0.02 0.01 0.02 0.02 0.01 0.01 0.01 0.01 0.02 0.03 0.05 0.04 0.04 0.03
0.01 0.04 0.04 0.05 0.07 0.09 0.05 0.02 0.01 0.03 0.07 0.03 0.02 0.02 0.04 0.05 0.04 0.05 0.03 0.03 0.03 0.04 0.03 0.03 0.02 0.01 0.02 0.02 0.02 0.02 0.02 0.02 0.02 0.02 0.01 0.01 0.01 0.02 0.03 0.03 0.04 0.03 0.03 0.02
0.02 0.05 0.06 0.07 0.08 0.08 0.03 0.01 0.01 0.06 0.08 0.04 0.02 0.02 0.03 0.02 0.03 0.04 0.03 0.03 0.04 0.04 0.03 0.03 0.02 0.03 0.02 0.02 0.02 0.02 0.02 0.02 0.01 0.01 0.01 0.02 0.01 0.02 0.03 0.03 0.03 0.03 0.02 0.02
0.02 0.04 0.05 0.04 0.06 0.07 0.01 0.01 0.02 0.04 0.03 0.02 0.02 0.03 0.03 0.02 0.02 0.02 0.04 0.03 0.03 0.04 0.03 0.03 0.03 0.03 0.03 0.02 0.03 0.03 0.02 0.01 0.01 0.01 0.02 0.02 0.03 0.02 0.01 0.03 0.02 0.02 0.02 0.01
0.02 0.04 0.04 0.05 0.06 0.04 0.02 0.01 0.02 0.02 0.02 0.02 0.03 0.03 0.02 0.01 0.02 0.02 0.03 0.03 0.03 0.03 0.02 0.02 0.03 0.03 0.03 0.02 0.04 0.04 0.02 0.01 0.02 0.02 0.03 0.02 0.02 0.02 0.02 0.02 0.03 0.02 0.01 0.01
0.02 0.03 0.03 0.04 0.05 0.03 0.02 0.02 0.02 0.02 0.02 0.02 0.02 0.02 0.02 0.01 0.02 0.02 0.02 0.02 0.03 0.03 0.02 0.02 0.02 0.03 0.03 0.03 0.03 0.03 0.02 0.02 0.03 0.03 0.03 0.03 0.03 0.02 0.01 0.02 0.02 0.02 0.01 0.01
0.02 0.03 0.02 0.03 0.05 0.05 0.04 0.03 0.02 0.02 0.02 0.02 0.02 0.02 0.02 0.02 0.02 0.02 0.01 0.02 0.02 0.02 0.02 0.02 0.02 0.03 0.03 0.02 0.01 0.01 0.01 0.02 0.03 0.03 0.02 0.02 0.02 0.01 0.01 0.01 0.00 0.00 0.00 0.00
0.02 0.02 0.02 0.02 0.02 0.04 0.04 0.03 0.03 0.02 0.02 0.02 0.01 0.01 0.01 0.01 0.02 0.02 0.02 0.02 0.02 0.02 0.01 0.02 0.03 0.03 0.02 0.01 0.01 0.01 0.01 0.01 0.02 0.02 0.02 0.01 0.01 0.01 0.01 0.01 0.00 0.00 0.00 0.00
MSLP
1008.72 1008.87 1008.91 1008.86 1008.79 1008.78 1008.88 1009.12 1009.48 1009.90 1010.30 1010.62 1010.79 1010.79 1010.67 1010.48 1010.33 1010.34 1010.58 1011.09 1011.88 1012.87 1013.98 1015.07 1016.03 1016.78 1017.25 1017.46 1017.44 1017.26 1017.00 1016.75 1016.57 1016.47 1016.46 1016.53 1016.65 1016.78 1016.90 1016.99 1017.04 1017.07 1017.08 1017.07
1008.59 1008.58 1008.47 1008.30 1008.18 1008.17 1008.33 1008.68 1009.17 1009.72 1010.25 1010.64 1010.85 1010.84 1010.66 1010.39 1010.15 1010.07 1010.23 1010.71 1011.50 1012.53 1013.70 1014.87 1015.93 1016.77 1017.34 1017.63 1017.68 1017.57 1017.38 1017.19 1017.05 1016.99 1017.00 1017.07 1017.17 1017.26 1017.31 1017.34 1017.32 1017.28 1017.23 1017.18
1008.50 1008.35 1008.11 1007.87 1007.72 1007.74 1007.98 1008.45 1009.08 1009.77 1010.41 1010.89 1011.14 1011.13 1010.91 1010.56 1010.23 1010.05 1010.13 1010.53 1011.27 1012.28 1013.46 1014.68 1015.79 1016.71 1017.36 1017.75 1017.91 1017.90 1017.80 1017.69 1017.62 1017.60 1017.64 1017.71 1017.78 1017.82 1017.81 1017.74 1017.65 1017.53 1017.41 1017.30
1008.54 1008.30 1007.99 1007.72 1007.58 1007.66 1008.00 1008.58 1009.34 1010.16 1010.91 1011.46 1011.75 1011.75 1011.48 1011.07 1010.65 1010.37 1010.34 1010.65 1011.31 1012.26 1013.40 1014.61 1015.75 1016.71 1017.44 1017.92 1018.18 1018.28 1018.28 1018.27 1018.27 1018.31 1018.37 1018.43 1018.47 1018.45 1018.36 1018.21 1018.03 1017.83 1017.64 1017.48
1008.77 1008.50 1008.19 1007.94 1007.85 1008.01 1008.43 1009.12 1009.99 1010.90 1011.72 1012.34 1012.66 1012.65 1012.37 1011.90 1011.41 1011.04 1010.92 1011.13 1011.68 1012.55 1013.62 1014.79 1015.91 1016.90 1017.67 1018.22 1018.56 1018.75 1018.85 1018.91 1018.98 1019.05 1019.13 1019.18 1019.18 1019.10 1018.94 1018.72 1018.46 1018.19 1017.94 1017.73
1009.19 1008.96 1008.70 1008.52 1008.51 1008.74 1009.25 1010.01 1010.93 1011.90 1012.76 1013.41 1013.74 1013.75 1013.46 1012.98 1012.45 1012.03 1011.83 1011.96 1012.43 1013.20 1014.19 1015.29 1016.37 1017.34 1018.12 1018.71 1019.10 1019.35 1019.51 1019.62 1019.71 1019.80 1019.87 1019.89 1019.85 1019.72 1019.51 1019.23 1018.91 1018.58 1018.28 1018.02
1009.75 1009.61 1009.45 1009.36 1009.43 1009.73 1010.29 1011.07 1012.01 1012.97 1013.83 1014.48 1014.83 1014.86 1014.60 1014.15 1013.64 1013.22 1013.01 1013.10 1013.50 1014.19 1015.11 1016.13 1017.14 1018.06 1018.82 1019.39 1019.79 1020.06 1020.22 1020.33 1020.41 1020.48 1020.52 1020.51 1020.42 1020.25 1020.00 1019.68 1019.32 1018.95 1018.62 1018.32
1010.33 1010.32 1010.28 1010.30 1010.44 1010.78 1011.34 1012.10 1012.99 1013.91 1014.73 1015.36 1015.73 1015.80 1015.62 1015.26 1014.84 1014.50 1014.34 1014.43 1014.82 1015.46 1016.31 1017.24 1018.18 1019.02 1019.71 1020.23 1020.59 1020.81 1020.93 1020.99 1021.03 1021.04 1021.02 1020.96 1020.83 1020.63 1020.35 1020.01 1019.63 1019.25 1018.89 1018.56
1010.84 1010.97 1011.05 1011.16 1011.35 1011.69 1012.20 1012.89 1013.69 1014.52 1015.29 1015.90 1016.29 1016.45 1016.38 1016.17 1015.91 1015.71 1015.66 1015.83 1016.24 1016.87 1017.66 1018.51 1019.35 1020.10 1020.69 1021.12 1021.39 1021.53 1021.56 1021.54 1021.49 1021.43 1021.34 1021.21 1021.04 1020.81 1020.53 1020.19 1019.82 1019.44 1019.07 1018.72
1011.20 1011.45 1011.63 1011.80 1012.01 1012.32 1012.75 1013.32 1014.00 1014.72 1015.41 1016.01 1016.45 1016.71 1016.81 1016.80 1016.75 1016.75 1016.87 1017.15 1017.62 1018.25 1018.99 1019.77 1020.51 1021.14 1021.62 1021.93 1022.09 1022.11 1022.04 1021.91 1021.76 1021.60 1021.43 1021.25 1021.05 1020.81 1020.53 1020.21 1019.87 1019.51 1019.15 1018.80
1011.36 1011.71 1011.96 1012.17 1012.36 1012.60 1012.93 1013.37 1013.91 1014.51 1015.13 1015.71 1016.21 1016.61 1016.90 1017.12 1017.31 1017.53 1017.83 1018.25 1018.79 1019.44 1020.14 1020.83 1021.46 1021.97 1022.33 1022.52 1022.56 1022.47 1022.29 1022.07 1021.82 1021.58 1021.34 1021.12 1020.89 1020.66 1020.40 1020.12 1019.82 1019.50 1019.17 1018.82
1011.38 1011.79 1012.09 1012.30 1012.46 1012.62 1012.84 1013.13 1013.53 1014.02 1014.57 1015.15 1015.72 1016.25 1016.73 1017.17 1017.60 1018.04 1018.52 1019.06 1019.67 1020.31 1020.96 1021.57 1022.09 1022.48 1022.72 1022.81 1022.75 1022.57 1022.31 1022.01 1021.69 1021.39 1021.12 1020.88 1020.65 1020.44 1020.23 1020.00 1019.75 1019.48 1019.19 1018.86
1011.33 1011.77 1012.09 1012.29 1012.42 1012.50 1012.61 1012.78 1013.05 1013.44 1013.93 1014.50 1015.12 1015.77 1016.42 1017.06 1017.68 1018.30 1018.92 1019.55 1020.18 1020.81 1021.39 1021.91 1022.32 1022.61 1022.76 1022.77 1022.65 1022.42 1022.12 1021.79 1021.45 1021.14 1020.86 1020.63 1020.43 1020.25 1020.09 1019.93 1019.74 1019.53 1019.27 1018.97
1011.31 1011.76 1012.09 1012.28 1012.36 1012.39 1012.40 1012.47 1012.64 1012.93 1013.36 1013.92 1014.59 1015.32 1016.09 1016.87 1017.63 1018.37 1019.08 1019.75 1020.37 1020.95 1021.45 1021.87 1022.20 1022.40 1022.49 1022.45 1022.31 1022.09 1021.80 1021.49 1021.18 1020.90 1020.65 1020.46 1020.30 1020.18 1020.08 1019.97 1019.85 1019.69 1019.47 1019.19
1011.39 1011.84 1012.16 1012.35 1012.41 1012.39 1012.35 1012.34 1012.42 1012.64 1013.02 1013.55 1014.22 1014.99 1015.83 1016.69 1017.53 1018.33 1019.06 1019.72 1020.31 1020.81 1021.23 1021.56 1021.80 1021.95 1022.00 1021.97 1021.85 1021.67 1021.45 1021.21 1020.97 1020.75 1020.56 1020.42 1020.32 1020.26 1020.21 1020.16 1020.09 1019.97 1019.79 1019.53
1011.58 1012.03 1012.35 1012.55 1012.61 1012.57 1012.49 1012.43 1012.45 1012.60 1012.93 1013.42 1014.07 1014.85 1015.70 1016.58 1017.44 1018.24 1018.96 1019.58 1020.10 1020.52 1020.85 1021.11 1021.29 1021.40 1021.45 1021.45 1021.39 1021.29 1021.16 1021.02 1020.87 1020.73 1020.62 1020.55 1020.50 1020.49 1020.49 1020.48 1020.44 1020.35 1020.19 1019.95
1011.84 1012.29 1012.63 1012.84 1012.92 1012.88 1012.79 1012.70 1012.68 1012.79 1013.06 1013.50 1014.11 1014.86 1015.69 1016.56 1017.40 1018.17 1018.85 1019.41 1019.86 1020.21 1020.47 1020.66 1020.81 1020.91 1020.98 1021.03 1021.05 1021.04 1021.01 1020.97 1020.91 1020.86 1020.82 1020.80 1020.80 1020.81 1020.84 1020.85 1020.83 1020.76 1020.62 1020.40
1012.09 1012.54 1012.91 1013.14 1013.25 1013.24 1013.15 1013.06 1013.01 1013.08 1013.31 1013.71 1014.27 1014.98 1015.77 1016.60 1017.41 1018.15 1018.78 1019.30 1019.70 1019.99 1020.21 1020.37 1020.49 1020.60 1020.71 1020.80 1020.89 1020.97 1021.03 1021.07 1021.08 1021.09 1021.10 1021.11 1021.13 1021.16 1021.19 1021.21 1021.20 1021.14 1021.01 1020.80
1012.24 1012.70 1013.08 1013.35 1013.49 1013.51 1013.45 1013.36 1013.31 1013.37 1013.57 1013.93 1014.46 1015.12 1015.88 1016.68 1017.47 1018.18 1018.79 1019.28 1019.66 1019.93 1020.13 1020.28 1020.41 1020.53 1020.66 1020.80 1020.94 1021.07 1021.18 1021.26 1021.32 1021.36 1021.38 1021.39 1021.41 1021.43 1021.45 1021.47 1021.46 1021.40 1021.29 1021.11
1012.23 1012.69 1013.08 1013.37 1013.55 1013.60 1013.58 1013.52 1013.49 1013.54 1013.73 1014.08 1014.59 1015.23 1015.98 1016.76 1017.54 1018.25 1018.86 1019.36 1019.74 1020.03 1020.23 1020.39 1020.53 1020.67 1020.82 1020.98 1021.13 1021.28 1021.40 1021.50 1021.55 1021.58 1021.58 1021.57 1021.56 1021.56 1021.57 1021.58 1021.57 1021.54 1021.46 1021.33
1012.03 1012.48 1012.87 1013.19 1013.39 1013.49 1013.50 1013.49 1013.49 1013.57 1013.78 1014.13 1014.64 1015.28 1016.03 1016.82 1017.60 1018.33 1018.97 1019.50 1019.92 1020.23 1020.46 1020.64 1020.80 1020.95 1021.10 1021.25 1021.40 1021.53 1021.63 1021.69 1021.71 1021.69 1021.65 1021.60 1021.55 1021.53 1021.52 1021.53 1021.55 1021.56 1021.53 1021.47
1011.67 1012.09 1012.48 1012.81 1013.04 1013.18 1013.25 1013.29 1013.35 1013.47 1013.72 1014.10 1014.63 1015.28 1016.04 1016.85 1017.66 1018.41 1019.09 1019.66 1020.11 1020.46 1020.73 1020.94 1021.11 1021.26 1021.40 1021.53 1021.65 1021.73 1021.78 1021.78 1021.74 1021.67 1021.57 1021.47 1021.39 1021.34 1021.33 1021.36 1021.42 1021.48 1021.54 1021.56
1011.22 1011.61 1011.98 1012.31 1012.58 1012.77 1012.90 1013.01 1013.13 1013.32 1013.62 1014.04 1014.60 1015.28 1016.05 1016.87 1017.69 1018.47 1019.18 1019.77 1020.27 1020.65 1020.95 1021.18 1021.35 1021.50 1021.63 1021.72 1021.79 1021.83 1021.81 1021.75 1021.65 1021.51 1021.36 1021.22 1021.11 1021.05 1021.05 1021.11 1021.21 1021.35 1021.50 1021.63
1010.74 1011.09 1011.45 1011.79 1012.09 1012.34 1012.54 1012.73 1012.94 1013.21 1013.56 1014.03 1014.62 1015.31 1016.09 1016.91 1017.73 1018.51 1019.22 1019.83 1020.33 1020.73 1021.05 1021.28 1021.47 1021.61 1021.71 1021.78 1021.81 1021.79 1021.72 1021.60 1021.44 1021.26 1021.06 1020.89 1020.76 1020.70 1020.72 1020.82 1020.99 1021.20 1021.45 1021.68
1010.30 1010.62 1010.97 1011.33 1011.67 1011.98 1012.27 1012.55 1012.84 1013.19 1013.60 1014.11 1014.72 1015.42 1016.18 1016.98 1017.77 1018.52 1019.20 1019.79 1020.29 1020.69 1021.00 1021.24 1021.42 1021.55 1021.64 1021.69 1021.68 1021.63 1021.53 1021.37 1021.17 1020.95 1020.73 1020.54 1020.40 1020.35 1020.39 1020.52 1020.74 1021.03 1021.36 1021.69
1009.91 1010.21 1010.57 1010.96 1011.35 1011.73 1012.11 1012.48 1012.86 1013.28 1013.76 1014.30 1014.92 1015.60 1016.32 1017.07 1017.80 1018.50 1019.13 1019.68 1020.14 1020.52 1020.81 1021.05 1021.22 1021.35 1021.43 1021.47 1021.46 1021.39 1021.27 1021.09 1020.87 1020.63 1020.40 1020.20 1020.06 1020.01 1020.06 1020.22 1020.48 1020.82 1021.20 1021.59
Thickness
5750 5743 5741 5753 5762 5766 5766 5764 5762 5767 5781 5773 5764 5753 5751 5755 5752 5747 5743 5740 5736 5731 5729 5726 5724 5721 5717 5713 5709 5706 5704 5701 5699 5696 5692 5688 5685 5684 5682 5680 5677 5676 5675 5675
5743 5740 5757 5769 5769 5766 5765 5757 5757 5767 5778 5770 5761 5754 5756 5757 5753 5749 5746 5741 5736 5729 5723 5719 5718 5715 5711 5707 5703 5701 5699 5696 5693 5690 5687 5683 5680 5677 5675 5673 5671 5669 5668 5667
5741 5756 5769 5766 5761 5756 5758 5757 5759 5761 5765 5769 5758 5746 5752 5754 5756 5753 5750 5744 5735 5729 5721 5715 5711 5709 5705 5701 5698 5696 5692 5690 5687 5685 5682 5679 5675 5671 5668 5666 5664 5663 5661 5659
5750 5763 5763 5758 5757 5757 5749 5767 5767 5761 5750 5747 5752 5727 5741 5749 5745 5746 5745 5738 5733 5729 5722 5714 5710 5705 5701 5697 5694 5690 5686 5683 5680 5678 5675 5671 5667 5663 5660 5659 5657 5656 5654 5652
5749 5757 5754 5750 5759 5763 5761 5775 5766 5759 5749 5743 5747 5732 5734 5746 5736 5737 5739 5735 5733 5728 5721 5714 5708 5703 5698 5693 5688 5684 5680 5676 5673 5671 5667 5664 5660 5658 5656 5654 5651 5649 5647 5644
5758 5767 5765 5763 5771 5772 5771 5765 5760 5757 5746 5724 5734 5726 5723 5734 5732 5732 5731 5729 5728 5724 5718 5711 5706 5699 5693 5688 5683 5678 5673 5669 5666 5663 5660 5656 5652 5650 5647 5645 5643 5641 5639 5637
5742 5757 5768 5771 5759 5762 5759 5740 5720 5710 5707 5708 5731 5724 5721 5737 5742 5736 5727 5723 5721 5718 5711 5703 5698 5692 5686 5681 5676 5672 5666 5661 5658 5655 5651 5648 5646 5643 5639 5637 5635 5633 5631 5628
5723 5731 5756 5763 5757 5749 5748 5739 5710 5692 5691 5705 5717 5711 5721 5736 5741 5738 5728 5722 5717 5711 5705 5697 5691 5686 5680 5675 5669 5664 5659 5654 5651 5647 5644 5641 5638 5636 5632 5629 5627 5624 5622 5620
5725 5730 5761 5770 5771 5762 5744 5741 5742 5720 5713 5701 5705 5712 5718 5727 5723 5721 5719 5715 5709 5703 5696 5690 5685 5679 5672 5667 5661 5656 5651 5646 5643 5640 5636 5633 5629 5627 5623 5621 5618 5615 5613 5612
5735 5726 5748 5763 5768 5767 5761 5751 5734 5718 5700 5695 5703 5702 5696 5704 5708 5708 5706 5705 5699 5695 5688 5684 5678 5671 5665 5659 5654 5649 5644 5639 5635 5632 5629 5625 5621 5618 5615 5612 5609 5607 5605 5603
5740 5722 5733 5746 5743 5743 5748 5745 5739 5730 5723 5705 5693 5692 5707 5705 5706 5704 5702 5699 5693 5688 5683 5677 5671 5664 5658 5652 5647 5641 5637 5632 5628 5624 5620 5616 5613 5609 5606 5603 5601 5599 5597 5595
5736 5726 5717 5730 5749 5755 5749 5744 5738 5718 5715 5719 5707 5691 5715 5713 5710 5703 5697 5692 5687 5680 5675 5670 5663 5657 5651 5645 5640 5635 5630 5625 5621 5617 5612 5608 5604 5600 5597 5594 5592 5591 5589 5587
5732 5718 5702 5706 5719 5734 5736 5742 5741 5734 5723 5713 5700 5690 5711 5710 5702 5696 5690 5685 5680 5674 5668 5662 5656 5650 5644 5639 5634 5629 5624 5619 5615 5610 5605 5601 5597 5593 5590 5587 5585 5583 5581 5580
5733 5714 5701 5687 5699 5714 5718 5729 5733 5725 5709 5704 5698 5692 5698 5698 5692 5688 5683 5679 5674 5668 5662 5656 5649 5643 5638 5633 5628 5622 5617 5613 5609 5604 5599 5594 5591 5587 5584 5581 5579 5577 5575 5573
5725 5708 5711 5712 5719 5723 5722 5724 5724 5718 5712 5699 5697 5692 5693 5694 5691 5685 5679 5674 5668 5662 5656 5650 5643 5637 5632 5627 5621 5616 5611 5606 5602 5597 5593 5589 5585 5583 5579 5576 5573 5570 5568 5567
5722 5708 5709 5710 5720 5722 5717 5720 5719 5715 5711 5706 5700 5691 5700 5696 5691 5682 5676 5669 5663 5658 5652 5646 5639 5633 5626 5621 5615 5610 5605 5600 5596 5592 5588 5584 5581 5577 5574 5570 5567 5565 5563 5561
5716 5705 5698 5698 5713 5711 5700 5710 5710 5709 5708 5703 5692 5691 5694 5688 5683 5678 5673 5667 5661 5654 5647 5640 5633 5628 5621 5616 5610 5604 5600 5596 5592 5588 5584 5581 5577 5573 5569 5566 5563 5560 5557 5556
5708 5701 5696 5694 5694 5676 5697 5719 5716 5707 5704 5704 5697 5694 5690 5684 5681 5676 5672 5666 5658 5651 5643 5635 5628 5622 5617 5612 5606 5601 5597 5593 5588 5584 5580 5577 5573 5569 5565 5562 5558 5555 5553 5551
5713 5700 5692 5687 5680 5681 5695 5708 5707 5697 5691 5698 5693 5690 5686 5684 5676 5669 5669 5664 5657 5649 5640 5631 5624 5618 5613 5608 5603 5598 5593 5589 5585 5580 5576 5573 5570 5566 5562 5558 5554 5552 5550 5549
5712 5703 5691 5686 5673 5666 5684 5706 5712 5700 5680 5693 5691 5685 5682 5678 5665 5658 5661 5658 5651 5643 5635 5627 5621 5615 5609 5605 5600 5595 5590 5585 5581 5577 5573 5569 5566 5562 5559 5556 5553 5551 5549 5547
5696 5692 5685 5681 5673 5677 5694 5706 5705 5677 5672 5689 5688 5684 5680 5673 5668 5663 5659 5652 5645 5638 5631 5624 5618 5612 5607 5602 5597 5591 5587 5583 5579 5575 5571 5567 5564 5561 5558 5555 5552 5550 5548 5546
5692 5687 5682 5681 5670 5668 5695 5698 5685 5679 5688 5688 5685 5681 5675 5669 5665 5659 5653 5646 5639 5633 5627 5621 5615 5609 5605 5601 5595 5589 5585 5582 5578 5574 5570 5566 5563 5561 5559 5554 5552 5550 5548 5546
5698 5693 5688 5682 5676 5685 5694 5690 5690 5691 5686 5684 5680 5677 5672 5665 5659 5654 5648 5641 5635 5630 5624 5619 5614 5608 5603 5599 5594 5589 5585 5582 5578 5573 5569 5565 5563 5560 5558 5555 5553 5551 5550 5548
5701 5705 5696 5685 5683 5689 5691 5691 5690 5688 5684 5682 5679 5674 5670 5662 5656 5650 5644 5638 5632 5627 5621 5617 5612 5606 5601 5598 5594 5590 5586 5581 5577 5572 5568 5566 5563 5560 5558 5556 5555 5554 5552 5550
5700 5699 5692 5685 5686 5688 5688 5688 5686 5685 5683 5679 5676 5673 5668 5661 5653 5647 5640 5636 5630 5624 5620 5616 5611 5606 5601 5598 5594 5590 5586 5581 5576 5572 5569 5567 5564 5562 5560 5558 5556 5555 5552 5550
5702 5697 5689 5684 5689 5687 5682 5686 5685 5680 5677 5675 5672 5667 5664 5659 5651 5644 5638 5633 5628 5623 5619 5615 5611 5607 5602 5598 5594 5590 5587 5582 5577 5573 5571 5569 5568 5565 5564 5561 5559 5556 5554 5552